This is the latest recevied weather packets stored in our database for station/object N6ZHV-13. If no packets are shown the sender has not sent any weather packets the latest 10 day(s).
| Time | Temp. | Humidity | Pressure | Rain* | Wind** | Luminosity | Snow |
|---|---|---|---|---|---|---|---|
| 1777758296 | 21.11° C | 66% | 1013.1 hPa | 0 mm | - | - | - |
| 1777757996 | 21.67° C | 66% | 1013.2 hPa | 0 mm | - | - | - |
| 1777757696 | 21.11° C | 67% | 1013.4 hPa | 0 mm | - | - | - |
| 1777757396 | 21.11° C | 67% | 1013.4 hPa | 0 mm | - | - | - |
| 1777757096 | 21.11° C | 66% | 1013.4 hPa | 0 mm | - | - | - |
| 1777756796 | 21.11° C | 66% | 1013.5 hPa | 0 mm | - | - | - |
| 1777756496 | 21.67° C | 65% | 1013.5 hPa | 0 mm | - | - | - |
| 1777756196 | 21.11° C | 67% | 1013.4 hPa | 0 mm | - | - | - |
| 1777755896 | 21.67° C | 67% | 1013.5 hPa | 0 mm | - | - | - |
| 1777755596 | 21.11° C | 67% | 1013.5 hPa | 0 mm | - | - | - |
| 1777755296 | 21.67° C | 66% | 1013.6 hPa | 0 mm | - | - | - |
| 1777754996 | 21.11° C | 67% | 1013.7 hPa | 0 mm | - | - | - |
| 1777754696 | 21.11° C | 68% | 1013.7 hPa | 0 mm | - | - | - |
| 1777754396 | 21.11° C | 68% | 1013.8 hPa | 0 mm | - | - | - |
| 1777754096 | 20.56° C | 68% | 1013.8 hPa | 0 mm | - | - | - |
| 1777753796 | 21.11° C | 68% | 1013.8 hPa | 0 mm | - | - | - |
| 1777753496 | 21.11° C | 68% | 1013.9 hPa | 0 mm | - | - | - |
| 1777753196 | 21.11° C | 66% | 1014 hPa | 0 mm | - | - | - |
| 1777752896 | 21.67° C | 68% | 1014 hPa | 0 mm | - | - | - |
| 1777752596 | 21.11° C | 68% | 1013.9 hPa | 0 mm | - | - | - |
| 1777752296 | 21.11° C | 69% | 1013.9 hPa | 0 mm | - | - | - |
| 1777751996 | 20.56° C | 71% | 1014.2 hPa | 0 mm | - | - | - |
| 1777751696 | 20.56° C | 70% | 1014.4 hPa | 0 mm | - | - | - |
| 1777751396 | 20.56° C | 71% | 1014.5 hPa | 0 mm | - | - | - |
| 1777751096 | 20° C | 72% | 1014.7 hPa | 0 mm | - | - | - |
* Rain latest hour (hover to see other rain measurements)
** Current wind speed in m/s (hover to see current wind gust speed)